LightSail-2 (44420 NORAD) Tracking and Keplerian Element Data

This shows tracking and keplerian element data for the satellite.

Feedback or suggestion? Click here.




ElementValue
Catalog44420
NameLightSail-2
Epoch Orbit543
Epoch Day226.4765555
Epoch Year2019
RAAN249.2147
Inclination24.0066
Eccentricity0.00198
Argument of Perigee27.5154
Mean Anonmoly332.6351
Mean Motion14.52685545
Decay Rate4.71E-05
L11 44420U 19036AC 19226.47655550 .00004710 00000-0 10750-2 0 9997
L22 44420 024.0066 249.2147 0019800 027.5154 332.6351 14.52685545005435

Live tracking and technical data element details for LightSail-2 (NORAD 44420). LightSail-2 can be tracked NOW for your location showing map with azimuth and elevation plus other details from your city location.

Track the satellite on the map from your city or location and see movement details for azimuth, elevation, latitude, longitude, range, height, and movement on the map or in text.







IsCatalogInMostPopularTable: catalog: 44420, numindb: 122
Update: records affected: 1



GetName: 44420 LightSail-2

Hit Count: updated at: Wed, 21 Aug 2019 00:34:44 GMT